CZ-4C DEB

Satellite information

Favourite Embed

Satellite Type and Status

DEBRISIN ORBIT

Key statistics

Satellite CZ-4C DEB at a glance.

Uptime

4357

Days in orbit

Revolutions

≈ 14.4

Per day

Orbit

SSO

Sun Synchronous Orbit

Inclination

100.5

Latest

Satellite identification and parameters

Extended collection of information and parameters for CZ-4C DEB.

Object identification

Identified? True

Debris? True

Object name: CZ-4C DEB

International designator: 2013-065E

Object number (NORAD): 43628

Object ID (CCSDS): 43628

Country: PEOPLES REPUBLIC OF CHINA (PRC)

Current information (Y/N): Y

RCS size: SMALL

Orbital parameters

Period: 99.842 minutes

Inclination: 100.5241 deg

SMA: 7129.133 km

Apoapsis: 856.39 km

Periapsis: 645.607 km

RAAN: 225.6224 deg

Eccentricy: 0.0147832

Argument of periapsis: 98.9947 deg

Mean anomaly: 262.8 deg

Mean motion: 14.42273609 rev/day

Mean motion (dot): 0.00017616 rev/day2

B* drag term: 0.0046881 1/REarth

Two-line elements (TLE)

Creation date: Oct. 23, 2025, 10:16 p.m.

Reference frame: TEME

Reference center: EARTH

Epoch: Oct. 23, 2025, 6:33 a.m. UTC

TLE line 0: 0 CZ-4C DEB

TLE line 1: 1 43628U 13065E 25296.27316619 .00017616 00000-0 46881-2 0 9997

TLE line 2: 2 43628 100.5241 225.6224 0147832 98.9947 262.8000 14.42273609369860

Live tracking on map

Real-time ground track for satellite CZ-4C DEB.

In-orbit conjunctions

A list of the most updated potential collisions computed for object CZ-4C DEB.

Target Orbit TCA Probability of collision Miss distance Type
DELTA 1 DEB SSO 2025-02-21 01:20:44 0.0001020281 138.0 (m) DEBRIS
CZ-6A DEB SSO 2024-11-11 06:41:54 0.0003349862 614.0 (m) DEBRIS
CZ-6A DEB SSO 2024-11-08 14:24:10 0.0004400439 216.0 (m) DEBRIS

Associated space launch

CZ-4C DEB was lifted into orbit during the mission ‘Long March 4C | Yaogan 19’, on board a Long March 4C space rocket.

The launch took place on Nov. 20, 2013, 3:31 a.m. from Launch Complex 9.

For more information about the launch, click the button.

Launch to space Long March 4C | Yaogan 19
Long March 4C | Yaogan 19

Agency: N/A

Status: Launch Successful

Launch date: Nov. 20, 2013, 3:31 a.m. UTC

Rocket: Long March 4C

Launch pad: Launch Complex 9

Location: Taiyuan Satellite Launch Center, People's Republic of China

...

Latest news about this satellite

There are no fresh news available about this satellite. Check back as we update our databases every day.


Newsletter sign-up

Weekly statistics, charts and insights to help you stay on top of the space industry.